{"data":{"norad_id":62124,"epoch":"2026-09-21T06:45:13.200192Z","epoch_age_seconds":114183,"freshness":"FRESH","line1":"1 62124U 24222L   26264.28140278  .00011945  00000+0  44265-3 0  9992","line2":"2 62124  43.0004 111.4622 0000167  13.7215 346.3641 15.27596510102650","mean_motion":15.2759651,"eccentricity":1.67e-5,"inclination_deg":43.0004,"raan_deg":111.4622,"arg_perigee_deg":13.7215,"mean_anomaly_deg":346.3641,"bstar":0.00044265,"rev_number":10265,"period_min":94.265729894866,"perigee_km":482.88507862325,"apogee_km":483.11424058768,"semimajor_km":6861.1366596055,"source":"CELESTRAK","updated_at":"2026-09-22T09:00:49.525688Z"}}